Location: *
(32.8140°S, 174.6161°E)
Time: 22:27:39
(UTC+00:00)

ATLAS 2AS CENTAUR R/B - Pass Details

Date: 10 December 2019
Orbit: 927 x 1285 km, 63.7° (Epoch: 06 January)

Event Time Altitude Azimuth Distance (km) Brightness Sun altitude
Exits shadow 14:03:24 18° 53° (NE) 2,163 4.2 -28.5°
Maximum altitude 14:04:51 19° 71° (ENE) 2,074 4.3 -28.3°
Drops below altitude 10° 14:09:03 10° 115° (ESE) 2,653 5.4 -27.9°
Sets 14:12:17 0° 131° (SE) 3,598 6.6 -27.6°
